{"data":{"norad_id":64495,"intl_designator":"2025-133Z","name":"STARLINK-34364","alt_names":[],"object_type":"PAYLOAD","status":"ACTIVE","operator":null,"country":"US","launch_date":"2025-06-23","launch_site_code":"AFETR","launch_vehicle":null,"mission":null,"orbit_class":"UNKNOWN","rcs_meters":null,"size_class":null,"mass_kg":null,"dimensions":null,"purposes":["comms"],"wikipedia_slug":null,"has_3d_model":false,"image_url":null,"decayed_at":null,"tle_current":{"epoch":"2026-09-20T13:08:32.600256Z","epoch_age_seconds":127222,"freshness":"FRESH","line1":"1 64495U 25133Z   26263.54759954  .00013611  00000+0  41325-3 0  9998","line2":"2 64495  53.1572 285.1763 0001268 127.3722 232.7397 15.34399846 71111","mean_motion":15.34399846,"eccentricity":0.0001268,"inclination_deg":53.1572,"raan_deg":285.1763,"arg_perigee_deg":127.3722,"mean_anomaly_deg":232.7397,"bstar":0.00041325,"rev_number":7111,"period_min":93.847767500362,"perigee_km":461.8362793271,"apogee_km":463.5711165281,"semimajor_km":6840.8406979276,"source":"CELESTRAK","updated_at":"2026-09-21T09:00:35.362898Z"}}}